Location: South Haven
(40.7993°N, 72.8951°W)
Time: 13:13:28
(UTC+00:00)

Daily predictions for brighter satellites

Satellite Brightness Start Highest point End
(mag) Time Altitude Azimuth Time Altitude Azimuth Time Altitude Azimuth
Cosmos 1092 Rocket 4.5 21:42:29 10° N 21:48:24 39° ENE 21:54:15 10° SE
Cosmos 1939 Rocket 3.1 21:50:59 10° SSE 21:54:57 49° ENE 21:58:55 10° N
H-2A R/B 2.9 21:51:10 10° ESE 21:55:26 26° ENE 21:59:36 10° NNE
Cosmos 1656 3.7 21:51:33 10° NNW 21:57:08 84° ENE 22:02:44 10° SSE
Cosmos 1812 4.4 21:56:10 10° ESE 21:58:28 15° E 22:00:46 10° NE
FengYun 1-2 T 4.2 21:53:40 10° SSE 21:59:12 69° ENE 22:04:44 10° N
COSMO-SKYMED 1 4.0 21:58:27 10° NE 22:01:28 18° E 22:04:28 10° SE
USA 276 2.2 22:02:11 10° NW 22:05:15 56° NNE 22:08:19 10° ESE
Cosmos 1763 Rocket 3.5 22:00:43 10° SSW 22:05:46 85° WNW 22:10:54 10° NNE
Cosmos 2034 Rocket 4.1 22:02:01 10° S 22:08:11 81° W 22:14:22 10° N
Meteor PRIRODA 4.2 22:05:29 10° S 22:09:05 61° W 22:12:41 10° NNW
Cosmos 1697 Rocket 2.8 22:03:53 10° NNW 22:09:23 53° ENE 22:14:50 10° SE
Cosmos 1633 Rocket 4.5 22:08:33 10° NNE 22:11:24 17° ENE 22:14:14 10° ESE
Cosmos 841 Rocket 3.8 22:06:35 10° S 22:11:29 45° ESE 22:16:23 10° NNE
Cosmos 1980 Rocket 2.9 22:08:13 10° N 22:13:11 30° ENE 22:18:06 10° ESE
Cosmos 2369 4.2 22:07:58 10° N 22:13:17 38° ENE 22:18:35 10° SE
Cosmos 1602 3.8 22:13:17 10° N 22:17:04 51° E 22:20:50 10° SSE
Cosmos 1937 Rocket 3.7 22:12:30 10° N 22:17:42 50° ENE 22:22:50 10° SE
Meteor 1-25 Rocket 4.1 22:14:38 10° N 22:20:14 76° E 22:25:50 10° SSE
Cosmos 1782 2.9 22:16:56 10° S 22:20:49 52° E 22:24:42 10° NNE
Okean O Rocket 2.7 22:17:27 10° ESE 22:20:56 23° ENE 22:24:27 10° NNE
NOAA 6 4.0 22:16:47 10° SSE 22:21:56 87° ENE 22:27:06 10° NNW
SL-16 R/B 4.0 22:20:57 10° NNE 22:22:55 12° NE 22:23:09 12° NE
Cosmos 2082 Rocket 2.4 22:18:50 10° S 22:24:19 52° ESE 22:29:49 10° NNE
Cosmos 1151 Rocket 3.8 22:20:52 10° SSE 22:24:39 30° E 22:28:27 10° NNE
Cosmos 1743 Rocket 3.8 22:20:57 10° NNW 22:25:16 74° W 22:29:35 10° S
Cosmos 990 Rocket 4.3 22:20:43 10° NNW 22:25:54 73° WSW 22:31:02 10° S
Meteor 2-21 4.5 22:20:43 10° N 22:26:42 57° E 22:32:37 10° SSE
USA 267 4.0 22:20:44 10° NE 22:26:52 45° NNW 22:33:01 10° W
ISS -2.2 22:25:25 10° NNW 22:28:05 21° NNE 22:29:11 18° NE
Cosmos 1634 Rocket 4.0 22:23:20 10° S 22:29:36 71° E 22:35:55 10° NNE
CORIOLIS 4.2 22:24:17 10° SSE 22:29:41 90° NNW 22:35:08 10° NNW
CZ-4B DEB 4.2 22:25:26 10° SSE 22:30:57 80° ENE 22:36:28 10° NNW
Cosmos 372 Rocket 4.3 22:26:21 10° N 22:31:19 42° ENE 22:36:16 10° SE
Cosmos 1340 Rocket 4.3 22:30:48 10° NNW 22:34:38 41° W 22:38:29 10° SSW
CZ-2D R/B 3.1 22:31:51 10° SSE 22:35:39 66° ENE 22:39:27 10° N
Cosmos 1666 Rocket 4.1 22:32:34 10° N 22:36:42 37° ENE 22:40:46 10° SE
Cosmos 2278 4.3 22:32:29 10° N 22:37:39 34° ENE 22:42:45 10° ESE
Cosmos 1328 Rocket 4.3 22:35:40 10° SSE 22:39:36 32° E 22:42:12 18° NE
Cosmos 2026 Rocket 3.9 22:33:43 10° N 22:39:52 81° E 22:45:56 10° S
MOS 1-B Rocket 4.1 22:35:30 10° NNE 22:41:28 72° ESE 22:48:18 10° S
COSMOS 2406 3.6 22:36:56 10° SSW 22:42:39 67° WNW 22:48:23 10° NNE
Lacrosse 5 rocket 3.3 22:41:23 10° N 22:43:19 13° NNE 22:43:19 13° NNE
CZ-2C R/B 3.5 22:41:42 10° S 22:43:43 13° SSE 22:45:28 11° SE
USA 229 DEB 4.1 22:37:21 10° NW 22:44:49 83° WSW 22:52:41 10° SSE
USA 229 4.0 22:37:27 10° NW 22:44:54 84° WSW 22:52:46 10° SSE
ARGOS 3.4 22:41:21 10° SE 22:46:30 46° ENE 22:51:39 10° N
COSMOS 2455 2.9 22:41:47 10° SSW 22:47:48 85° WNW 22:53:25 12° NNE
Cosmos 1833 Rocket 3.6 22:42:47 10° SW 22:48:11 46° WNW 22:53:35 10° NNE
Cosmos 858 Rocket 4.5 22:44:24 10° NNW 22:49:44 88° ENE 22:54:59 10° SSE
SKYMED 2 3.5 22:45:28 10° NNE 22:49:47 61° E 22:54:04 10° S
Cosmos 1500 3.0 22:46:41 10° N 22:50:26 87° E 22:54:08 10° S
Meteor 2-14 Rocket 4.4 22:44:28 10° N 22:50:36 90° E 22:56:40 10° S
ATLAS CENTAUR R/B 3.9 22:41:26 10° WSW 22:51:23 46° NW 22:54:53 16° NNE
Landsat 5 3.7 22:50:05 24° NE 22:52:06 43° E 22:55:53 10° S
Meteor 2-6 Rocket 4.4 22:49:15 10° SSE 22:54:50 50° E 23:00:15 10° NNE
SL-08 RB Rocket 4.2 22:52:01 10° SE 22:56:17 37° ENE 23:00:31 10° N
PAYLOAD B 4.4 22:52:58 10° S 22:58:34 77° WSW 23:04:12 10° NNW
USA 234 3.3 22:52:15 10° SE 22:58:48 80° SW 23:05:22 10° NW
Cosmos 1570 Rocket 3.9 22:54:42 10° S 22:59:53 66° ESE 23:03:29 20° NNE
Cosmos 540 Rocket 4.4 22:57:12 10° SW 23:02:05 46° WNW 23:07:01 10° N
CZ-4B R/B 3.1 22:59:06 10° SSE 23:04:33 84° ENE 23:09:56 10° NNW
Sich 1 3.8 23:01:26 10° NNW 23:05:37 54° W 23:09:50 10° S
GEOS 3 Rocket 4.3 23:05:32 32° ENE 23:06:09 33° NE 23:10:44 10° NNW
Cosmos 1814 Rocket 3.9 23:01:45 10° SSW 23:07:00 88° ESE 23:10:55 18° NNE
Cosmos 44 Rocket 4.4 23:04:46 10° NNW 23:08:01 26° NNE 23:08:01 26° NNE
CZ-2C R/B 2.5 23:05:21 10° NNE 23:10:33 84° WNW 23:15:44 10° SSW
Cosmos 1818 4.3 23:06:18 10° NNW 23:11:07 33° NE 23:11:07 33° NE
GPS 2-04 Rocket1 3.9 23:07:48 10° WSW 23:11:37 37° S 23:12:58 28° SSE
Meteor 2-8 Rocket 4.3 23:05:40 10° S 23:11:45 70° E 23:17:54 10° NNE
Meteor 2-21 Rocket 4.5 23:06:32 10° N 23:12:39 82° W 23:18:42 10° S
Meteor 1-10 Rocket 4.3 23:08:05 10° S 23:13:42 53° E 23:16:43 26° NNE
Cosmos 1900 4.2 23:09:24 10° SSW 23:14:12 67° ESE 23:15:36 44° NE
NOSS 2-2 (D) 4.4 23:08:55 10° NNW 23:14:28 83° NE 23:22:18 10° SE
deb Chang Zheng 4 3.6 23:12:35 10° S 23:16:53 76° WSW 23:21:13 10° NNW
CZ-4C R/B 3.9 23:18:27 34° S 23:18:27 34° S 23:20:30 10° S
Cosmos 1666 2.7 23:16:19 10° N 23:20:02 76° W 23:23:44 10° S
Cosmos 1515 Rocket 4.2 23:16:29 10° SSE 23:19:38 38° SE 23:19:38 38° SE
Feng Yun 1-1 Rocket 4.3 23:19:46 10° SSE 23:25:38 68° ENE 23:31:29 10° N
CZ-4C R/B 2.9 23:22:19 10° NNW 23:29:45 72° NE 23:36:22 18° SE
Cosmos 2360 Rocket 4.4 23:27:25 10° N 23:27:34 10° N 23:27:34 10° N
Cosmos 2208 Rocket 4.1 23:27:31 10° SSW 23:32:53 79° WNW 23:35:28 32° NNE
Cosmos 1812 4.4 23:30:25 10° SW 23:33:54 32° WNW 23:36:51 13° NNW
H-2A R/B 3.5 23:29:52 10° SSW 23:34:40 37° W 23:39:23 10° NNW
COSMO-SKYMED 1 3.9 23:34:00 12° N 23:37:46 38° WNW 23:41:47 10° SW
Spot 2 4.4 23:41:47 10° SSE 23:46:53 87° ENE 23:52:04 10° NNW
Cosmos 921 Rocket 3.6 23:44:15 10° SSW 23:47:24 49° SW 23:47:24 49° SW
Cosmos 1633 Rocket 4.3 23:45:16 10° NNW 23:49:22 40° W 23:53:28 10° SSW
Cosmos 2322 Rocket 3.9 23:45:37 10° N 23:47:27 19° N 23:47:27 19° N
